Terminal Aerodrome Forecast
Issued by NWS Miami, FL

Current Version | Previous Version | Text Only | Print | Product List | Glossary On
Versions: 1 2 3 4 5 6 7 8 9 10 11 12 13 14 15 16 17 18 19 20 21 22 23 24 25 26 27 28 29 30 31 32 33
000
FTUS42 KMFL 202327
TAFAPF
TAF
KAPF 202327Z 2100/2124 31009KT P6SM SCT040
     FM210400 03005KT P6SM SCT040
     FM211700 29012KT P6SM SCT040=

USA.gov is the U.S. government's official web portal to all federal, state and local government web resources and services.